When you browse on this site, cookies collect data to enhance your experience and personalize the content and advertising you see.
Visit our Privacy Policy to learn more. By continuing to use the site, you agree to this use of cookies and data.
  • In Hungary
  • List of Countries
  • For 7 days
  • Water Temperature
  • Weather Map
  • News
  • Weather Widgets
  • user-avatar
    Login

    Hourly Weather Novoegorlykskiy

    Today, 15 October, Tuesday

    Time Temperature Precipitation Wind Pressure Humidity
    00:00 +16°C° 0 mm 2 mps 761 mmHg 65%
    01:00 +15°C° 0 mm 2 mps 761 mmHg 65%
    02:00 +15°C° 0 mm 2 mps 760 mmHg 65%
    03:00 +14°C° 0 mm 2 mps 760 mmHg 67%
    04:00 +14°C° 0 mm 2 mps 760 mmHg 66%
    05:00 +14°C° 0 mm 2 mps 760 mmHg 65%
    06:00 +14°C° 0 mm 2 mps 760 mmHg 64%
    07:00 +15°C° 0 mm 2 mps 760 mmHg 60%
    08:00 +16°C° 0 mm 2 mps 760 mmHg 55%
    09:00 +17°C° 0 mm 2 mps 760 mmHg 50%
    10:00 +19°C° 0 mm 2 mps 760 mmHg 45%
    11:00 +21°C° 0 mm 2 mps 760 mmHg 39%
    12:00 +23°C° 0 mm 2 mps 760 mmHg 34%
    13:00 +24°C° 0 mm 2 mps 759 mmHg 33%
    14:00 +24°C° 0 mm 1 mps 759 mmHg 31%
    15:00 +25°C° 0 mm 1 mps 759 mmHg 30%
    16:00 +23°C° 0 mm 1 mps 758 mmHg 33%
    17:00 +22°C° 0 mm 1 mps 758 mmHg 37%
    18:00 +18°C° 0 mm 0 mps 758 mmHg 41%
    19:00 +20°C° 0 mm 1 mps 758 mmHg 42%
    20:00 +19°C° 0 mm 1 mps 758 mmHg 43%
    21:00 +19°C° 0 mm 1 mps 759 mmHg 45%
    22:00 +18°C° 0 mm 1 mps 759 mmHg 47%
    23:00 +17°C° 0 mm 2 mps 758 mmHg 49%

    Tomorrow, 16 October, Wednesday

    Time Temperature Precipitation Wind Pressure Humidity
    00:00 +16°C° 0 mm 2 mps 758 mmHg 52%
    01:00 +16°C° 0 mm 2 mps 758 mmHg 53%
    02:00 +15°C° 0 mm 2 mps 759 mmHg 54%
    03:00 +15°C° 0 mm 2 mps 759 mmHg 55%
    04:00 +15°C° 0 mm 2 mps 759 mmHg 56%
    05:00 +14°C° 0 mm 2 mps 759 mmHg 57%
    06:00 +14°C° 0 mm 2 mps 758 mmHg 58%
    07:00 +15°C° 0 mm 2 mps 759 mmHg 55%
    08:00 +17°C° 0 mm 2 mps 759 mmHg 52%
    09:00 +18°C° 0 mm 3 mps 760 mmHg 49%
    10:00 +19°C° 0 mm 3 mps 760 mmHg 46%
    11:00 +21°C° 0 mm 3 mps 760 mmHg 42%
    12:00 +22°C° 0 mm 3 mps 760 mmHg 38%
    13:00 +24°C° 0 mm 3 mps 759 mmHg 37%
    14:00 +23°C° 0 mm 4 mps 759 mmHg 37%
    15:00 +23°C° 0 mm 4 mps 759 mmHg 36%
    16:00 +22°C° 0 mm 4 mps 759 mmHg 44%
    17:00 +20°C° 0 mm 4 mps 760 mmHg 51%
    18:00 +18°C° 0 mm 4 mps 760 mmHg 58%
    19:00 +18°C° 0 mm 4 mps 760 mmHg 62%
    20:00 +16°C° 0 mm 5 mps 760 mmHg 66%
    21:00 +16°C° 0 mm 5 mps 761 mmHg 71%
    22:00 +15°C° 0 mm 5 mps 761 mmHg 72%
    23:00 +15°C° 0 mm 5 mps 761 mmHg 73%

    Day after tomorrow, 17 October, Thursday

    Time Temperature Precipitation Wind Pressure Humidity
    00:00 +14°C° 0 mm 6 mps 761 mmHg 74%
    01:00 +14°C° 0 mm 6 mps 761 mmHg 75%
    02:00 +13°C° 0 mm 6 mps 761 mmHg 75%
    03:00 +13°C° 0 mm 6 mps 761 mmHg 76%
    04:00 +11°C° 0 mm 6 mps 761 mmHg 76%
    05:00 +11°C° 0 mm 6 mps 761 mmHg 76%
    06:00 +12°C° 0 mm 5 mps 761 mmHg 76%
    07:00 +13°C° 0 mm 6 mps 761 mmHg 74%
    08:00 +14°C° 0 mm 6 mps 761 mmHg 71%
    09:00 +15°C° 0 mm 7 mps 761 mmHg 69%
    10:00 +16°C° 0 mm 7 mps 761 mmHg 64%
    11:00 +17°C° 0 mm 7 mps 761 mmHg 59%
    12:00 +20°C° 0 mm 7 mps 761 mmHg 54%
    13:00 +20°C° 0 mm 7 mps 761 mmHg 52%
    14:00 +20°C° 0 mm 7 mps 760 mmHg 50%
    15:00 +21°C° 0 mm 7 mps 760 mmHg 48%
    16:00 +19°C° 0 mm 6 mps 760 mmHg 53%
    17:00 +17°C° 0 mm 6 mps 760 mmHg 58%
    18:00 +16°C° 0 mm 5 mps 760 mmHg 62%
    19:00 +15°C° 0 mm 5 mps 760 mmHg 65%
    20:00 +15°C° 0 mm 5 mps 759 mmHg 67%
    21:00 +14°C° 0 mm 5 mps 759 mmHg 69%
    22:00 +14°C° 0 mm 5 mps 759 mmHg 72%
    23:00 +13°C° 0 mm 4 mps 759 mmHg 74%

    18 October, Friday

    Time Temperature Precipitation Wind Pressure Humidity
    00:00 +12°C° 0 mm 4 mps 759 mmHg 77%
    01:00 +12°C° 0 mm 4 mps 759 mmHg 79%
    02:00 +11°C° 0 mm 4 mps 758 mmHg 81%
    03:00 +11°C° 0 mm 4 mps 758 mmHg 83%
    04:00 +11°C° 0 mm 4 mps 758 mmHg 84%
    05:00 +10°C° 0 mm 4 mps 758 mmHg 86%
    06:00 +10°C° 0 mm 4 mps 758 mmHg 87%
    07:00 +11°C° 0 mm 4 mps 758 mmHg 82%
    08:00 +12°C° 0 mm 4 mps 758 mmHg 76%
    09:00 +14°C° 0 mm 4 mps 758 mmHg 71%
    10:00 +17°C° 0 mm 4 mps 758 mmHg 62%
    11:00 +19°C° 0 mm 4 mps 758 mmHg 53%
    12:00 +20°C° 0 mm 4 mps 758 mmHg 44%
    13:00 +21°C° 0 mm 4 mps 757 mmHg 42%
    14:00 +22°C° 0 mm 3 mps 757 mmHg 39%
    15:00 +22°C° 0 mm 3 mps 757 mmHg 37%
    16:00 +21°C° 0 mm 3 mps 757 mmHg 41%
    17:00 +19°C° 0 mm 2 mps 757 mmHg 45%
    18:00 +18°C° 0 mm 2 mps 757 mmHg 49%
    19:00 +17°C° 0 mm 2 mps 757 mmHg 50%
    20:00 +16°C° 0 mm 3 mps 757 mmHg 52%
    21:00 +16°C° 0 mm 3 mps 757 mmHg 54%
    22:00 +14°C° 0 mm 3 mps 757 mmHg 54%
    23:00 +15°C° 0 mm 2 mps 757 mmHg 55%

    19 October, Saturday

    Time Temperature Precipitation Wind Pressure Humidity
    00:00 +15°C° 0 mm 2 mps 757 mmHg 56%
    01:00 +14°C° 0 mm 2 mps 757 mmHg 57%
    02:00 +14°C° 0 mm 2 mps 757 mmHg 57%
    03:00 +14°C° 0 mm 2 mps 757 mmHg 58%
    04:00 +14°C° 0 mm 2 mps 757 mmHg 58%
    05:00 +13°C° 0 mm 2 mps 758 mmHg 59%
    06:00 +13°C° 0 mm 2 mps 758 mmHg 59%
    07:00 +14°C° 0 mm 2 mps 758 mmHg 55%
    08:00 +16°C° 0 mm 2 mps 758 mmHg 52%
    09:00 +17°C° 0 mm 2 mps 759 mmHg 48%
    10:00 +19°C° 0 mm 2 mps 759 mmHg 44%
    11:00 +20°C° 0 mm 2 mps 759 mmHg 40%
    12:00 +21°C° 0 mm 2 mps 759 mmHg 36%
    13:00 +23°C° 0 mm 2 mps 759 mmHg 35%
    14:00 +23°C° 0 mm 2 mps 758 mmHg 34%
    15:00 +24°C° 0 mm 2 mps 758 mmHg 33%
    16:00 +21°C° 0 mm 2 mps 758 mmHg 37%
    17:00 +19°C° 0 mm 2 mps 758 mmHg 40%
    18:00 +18°C° 0 mm 2 mps 758 mmHg 44%
    19:00 +17°C° 0 mm 3 mps 759 mmHg 46%
    20:00 +17°C° 0 mm 3 mps 759 mmHg 48%
    21:00 +16°C° 0 mm 3 mps 759 mmHg 50%
    22:00 +16°C° 0 mm 3 mps 759 mmHg 51%
    23:00 +14°C° 0 mm 3 mps 759 mmHg 52%

    20 October, Sunday

    Time Temperature Precipitation Wind Pressure Humidity
    00:00 +14°C° 0 mm 3 mps 760 mmHg 54%
    01:00 +14°C° 0 mm 2 mps 760 mmHg 54%
    02:00 +14°C° 0 mm 2 mps 760 mmHg 55%
    03:00 +14°C° 0 mm 2 mps 760 mmHg 56%
    04:00 +12°C° 0 mm 3 mps 760 mmHg 58%
    05:00 +12°C° 0 mm 3 mps 760 mmHg 60%
    06:00 +12°C° 0 mm 3 mps 760 mmHg 61%
    07:00 +13°C° 0 mm 3 mps 761 mmHg 59%
    08:00 +14°C° 0 mm 4 mps 761 mmHg 57%
    09:00 +15°C° 0 mm 4 mps 761 mmHg 55%
    10:00 +17°C° 0 mm 4 mps 761 mmHg 53%
    11:00 +19°C° 0 mm 4 mps 761 mmHg 51%
    12:00 +20°C° 0 mm 5 mps 761 mmHg 48%
    13:00 +20°C° 0 mm 5 mps 761 mmHg 48%
    14:00 +20°C° 0 mm 5 mps 761 mmHg 49%
    15:00 +20°C° 0 mm 5 mps 761 mmHg 49%
    16:00 +19°C° 0 mm 5 mps 761 mmHg 53%
    17:00 +16°C° 0 mm 5 mps 761 mmHg 58%
    18:00 +15°C° 0 mm 4 mps 761 mmHg 62%
    19:00 +14°C° 0 mm 5 mps 762 mmHg 64%
    20:00 +14°C° 0 mm 5 mps 762 mmHg 66%
    21:00 +13°C° 0 mm 5 mps 762 mmHg 68%
    22:00 +13°C° 0 mm 5 mps 762 mmHg 69%
    23:00 +12°C° 0 mm 5 mps 762 mmHg 70%
    Show more